Simultaneous Nadir Overpasses (SNOs) Predictions

Prediction of SNOs between GOES-17 and AQUA Satellite Orbit:

Table of predicted SNOs for the next 14.0 days since TLE Epoch: 11/9/2019
Index Date Time (GOES-17) GOES-17 Lat,Lon AQUA Lat,Lon Distance(km) Time Diff (sec)
1 11/09/2019 10:51:28 0.00,-137.22 0.32,-138.65 162.89 80
2 11/11/2019 10:36:38 0.00,-137.22 -0.32,-135.69 172.98 80
3 11/11/2019 22:58:01 -0.00,-137.21 -0.76,-140.89 417.97 80
4 11/13/2019 22:45:49 -0.00,-137.20 -0.18,-137.92 83.08 80
5 11/15/2019 22:36:18 -0.01,-137.18 0.47,-134.97 250.90 80
6 11/16/2019 10:57:34 0.01,-137.17 0.64,-140.13 335.79 80
7 11/18/2019 10:45:23 0.00,-137.14 -0.01,-137.18 4.13 80
8 11/20/2019 10:30:31 0.00,-137.11 -0.61,-134.21 329.21 80
9 11/20/2019 22:51:54 -0.00,-137.09 -0.52,-139.39 262.64 80
10 11/22/2019 22:42:23 -0.00,-137.05 0.14,-136.44 69.27 80




NCC Satellite Simultaneous Nadir Overpasses (SNOs) Prediction Service
